Погода в Машево

Украина / Черниговская область     52°05′19″N   32°48′04″E
темп.,
°C
ветер,
м/с
пор.,
м/с
влажн.,
%
обл.,
%
осадки,
мм/ч
давл.,
гПа
погр.,
м
16 сентября, чт
чт1600:00+8с22690 0.0 101921
03:00+6ссв33725 0.0 101934
06:00+5ссв22785 0.0 102024
09:00+10св23535 0.0 1020281
12:00+15с22415 0.0 10201245
15:00+16ссз22373 0.0 10191477
18:00+14ссз22485 0.0 101925
21:00+9св336395 0.0 102028
17 сентября, пт
пт1700:00+8в3464100 0.0 101952
03:00+8вюв336397 0.0 101854
06:00+9в3457100 0.0 1017124
09:00+10в4659100 0.0 1016219
12:00+8вюв51081100 0.9 1015309
15:00+8вюв61091100 3.9 1015325
18:00+8вюв61095100 3.6 1013334
21:00+9в61196100 7.9 1013416
18 сентября, сб
сб1800:00+9в71397100 3.3 1013482
03:00+9в81597100 6.4 1012546
06:00+10вюв91593100 0.5 1011614
09:00+9вюв91696100 5.2 1010712
12:00+9вюв91694100 7.6 1010792
15:00+10вюв101794100 15.1 1009816
18:00+11юв81496100 3.9 1009865
21:00+11юв61297100 4.8 1011509
19 сентября, вс
вс1900:00+10юв71395100 0.9 1011530
03:00+10вюв51095100 1.1 1012461
06:00+10вюв489681 0.0 1012326
09:00+10вюв459493 0.0 1012349
12:00+12вюв448581 0.0 1012512
15:00+13в4379100 0.1 1012696
18:00+11всв4688100 0.0 1011407
21:00+10всв5893100 0.1 1011380
20 сентября, пн
пн2000:00+9всв5994100 0.1 1011370
03:00+8всв5895100 0.8 1011394
06:00+7всв61196100 1.1 1010415
09:00+7всв51197100 3.1 1010453
12:00+8всв51097100 4.6 1009450
15:00+8св5997100 8.1 1009442
18:00+8св4898100 2.1 1008410
21:00+8св4798100 4.4 1008384